sat.trackr.live / text

‹ back to catalog

STARLINK-11199 [DTC]

NORAD 60404 · 2024-141G

PAYLOAD ACTIVE UNKNOWN

§ Identity

Operator
Country
US
Launch date
2024-08-10
Launch site
AFETR
Launch vehicle
Mass (kg)
RCS (m²)

Purposes: comms

External: N2YO · Heavens-Above · Gunter

§ Orbital elements

Epoch: 2026-09-21T05:58:16.785696Z

Period
91.74 min
Inclination
53.1603°
Eccentricity
0.0001443
Mean motion
15.69711398 rev/d
Perigee alt
358.8 km
Apogee alt
360.7 km
Semi-major
6,737.9 km
B*
9.1233e-6
RAAN
202.5205°
Arg perigee
79.0190°
Mean anomaly
281.0990°
Rev number
12,245

§ Raw data

STARLINK-11199 [DTC]1 60404U 24141G   26264.24880539  .00000516  00000+0  91233-5 0  99992 60404  53.1603 202.5205 0001443  79.0190 281.0990 15.69711398122451

JSON: /api/v1/satellites/60404 · /tle

For live sub-satellite position, see the globe view (requires WebGL).

§ Visibility from observer

Set your observer location to see the next 7 days of passes ≥ 10°. The values pass through the URL so the page stays shareable.

No JS? Fill the form by hand. The geolocation button needs JavaScript.